• In Hungary
  • List of Countries
  • For 7 days
  • Water Temperature
  • Satellite Maps
  • Weather Map
  • News
  • Weather Widgets
  • user-avatar
    Login

    Hourly Weather Herāt

    Today, 26 May, Saturday

    Time Temperature Precipitation Wind Pressure Humidity
    00:00 +23°C° 0 mm 2 mps 678 mmHg 23%
    01:00 +23°C° 0 mm 2 mps 678 mmHg 23%
    02:00 +21°C° 0 mm 2 mps 677 mmHg 24%
    03:00 +20°C° 0 mm 2 mps 677 mmHg 24%
    04:00 +20°C° 0 mm 2 mps 677 mmHg 25%
    05:00 +21°C° 0 mm 2 mps 677 mmHg 23%
    06:00 +24°C° 0 mm 2 mps 678 mmHg 21%
    07:00 +25°C° 0 mm 2 mps 678 mmHg 19%
    08:00 +27°C° 0 mm 2 mps 678 mmHg 15%
    09:00 +28°C° 0 mm 2 mps 679 mmHg 12%
    10:00 +30°C° 0 mm 1 mps 679 mmHg 8%
    11:00 +31°C° 0 mm 2 mps 679 mmHg 8%
    12:00 +32°C° 0 mm 2 mps 679 mmHg 8%
    13:00 +34°C° 0 mm 3 mps 679 mmHg 8%
    14:00 +34°C° 0 mm 3 mps 678 mmHg 8%
    15:00 +34°C° 0 mm 3 mps 678 mmHg 8%
    16:00 +34°C° 0 mm 3 mps 678 mmHg 8%
    17:00 +33°C° 0 mm 3 mps 678 mmHg 10%
    18:00 +31°C° 0 mm 2 mps 678 mmHg 11%
    19:00 +30°C° 0 mm 2 mps 677 mmHg 13%
    20:00 +29°C° 0 mm 2 mps 678 mmHg 13%
    21:00 +28°C° 0 mm 3 mps 678 mmHg 13%
    22:00 +27°C° 0 mm 3 mps 678 mmHg 13%
    23:00 +27°C° 0 mm 3 mps 678 mmHg 13%

    Tomorrow, 27 May, Sunday

    Time Temperature Precipitation Wind Pressure Humidity
    00:00 +26°C° 0 mm 3 mps 678 mmHg 13%
    01:00 +26°C° 0 mm 3 mps 678 mmHg 13%
    02:00 +25°C° 0 mm 3 mps 678 mmHg 13%
    03:00 +25°C° 0 mm 3 mps 678 mmHg 13%
    04:00 +24°C° 0 mm 3 mps 678 mmHg 13%
    05:00 +26°C° 0 mm 2 mps 678 mmHg 12%
    06:00 +27°C° 0 mm 2 mps 679 mmHg 12%
    07:00 +29°C° 0 mm 2 mps 679 mmHg 11%
    08:00 +30°C° 0 mm 3 mps 680 mmHg 11%
    09:00 +33°C° 0 mm 4 mps 680 mmHg 11%
    10:00 +34°C° 0 mm 5 mps 681 mmHg 11%
    11:00 +35°C° 0 mm 5 mps 681 mmHg 11%
    12:00 +36°C° 0 mm 6 mps 681 mmHg 11%
    13:00 +36°C° 0 mm 7 mps 681 mmHg 10%
    14:00 +36°C° 0 mm 7 mps 681 mmHg 11%
    15:00 +37°C° 0 mm 8 mps 681 mmHg 12%
    16:00 +35°C° 0 mm 9 mps 680 mmHg 13%
    17:00 +34°C° 0 mm 9 mps 680 mmHg 18%
    18:00 +32°C° 0 mm 10 mps 681 mmHg 22%
    19:00 +29°C° 0 mm 10 mps 681 mmHg 27%
    20:00 +28°C° 0 mm 11 mps 681 mmHg 31%
    21:00 +27°C° 0 mm 11 mps 682 mmHg 35%
    22:00 +26°C° 0 mm 11 mps 682 mmHg 40%
    23:00 +24°C° 0 mm 11 mps 682 mmHg 42%

    Day after tomorrow, 28 May, Monday

    Time Temperature Precipitation Wind Pressure Humidity
    00:00 +23°C° 0 mm 10 mps 682 mmHg 43%
    01:00 +22°C° 0 mm 10 mps 682 mmHg 45%
    02:00 +22°C° 0 mm 10 mps 682 mmHg 46%
    03:00 +21°C° 0 mm 10 mps 682 mmHg 47%
    04:00 +21°C° 0 mm 9 mps 682 mmHg 48%
    05:00 +21°C° 0 mm 10 mps 683 mmHg 46%
    06:00 +21°C° 0 mm 10 mps 683 mmHg 45%
    07:00 +21°C° 0 mm 10 mps 684 mmHg 43%
    08:00 +22°C° 0 mm 10 mps 684 mmHg 41%
    09:00 +23°C° 0 mm 10 mps 684 mmHg 38%
    10:00 +26°C° 0 mm 10 mps 684 mmHg 36%
    11:00 +26°C° 0 mm 10 mps 683 mmHg 33%
    12:00 +27°C° 0 mm 9 mps 683 mmHg 30%
    13:00 +28°C° 0 mm 9 mps 682 mmHg 27%
    14:00 +28°C° 0 mm 9 mps 682 mmHg 25%
    15:00 +28°C° 0 mm 9 mps 681 mmHg 24%
    16:00 +28°C° 0 mm 9 mps 681 mmHg 22%
    17:00 +26°C° 0 mm 8 mps 681 mmHg 22%
    18:00 +24°C° 0 mm 8 mps 680 mmHg 22%
    19:00 +23°C° 0 mm 8 mps 680 mmHg 21%
    20:00 +22°C° 0 mm 7 mps 680 mmHg 21%
    21:00 +21°C° 0 mm 7 mps 680 mmHg 21%
    22:00 +20°C° 0 mm 6 mps 680 mmHg 21%
    23:00 +20°C° 0 mm 6 mps 679 mmHg 22%

    29 May, Tuesday

    Time Temperature Precipitation Wind Pressure Humidity
    00:00 +19°C° 0 mm 5 mps 679 mmHg 22%
    01:00 +18°C° 0 mm 4 mps 678 mmHg 23%
    02:00 +18°C° 0 mm 4 mps 678 mmHg 24%
    03:00 +18°C° 0 mm 4 mps 678 mmHg 24%
    04:00 +17°C° 0 mm 4 mps 678 mmHg 25%
    05:00 +18°C° 0 mm 4 mps 678 mmHg 23%
    06:00 +20°C° 0 mm 4 mps 678 mmHg 21%
    07:00 +21°C° 0 mm 4 mps 679 mmHg 19%
    08:00 +23°C° 0 mm 4 mps 679 mmHg 16%
    09:00 +26°C° 0 mm 5 mps 679 mmHg 13%
    10:00 +28°C° 0 mm 5 mps 679 mmHg 10%
    11:00 +29°C° 0 mm 6 mps 679 mmHg 9%
    12:00 +30°C° 0 mm 7 mps 679 mmHg 8%
    13:00 +32°C° 0 mm 7 mps 679 mmHg 7%
    14:00 +32°C° 0 mm 8 mps 678 mmHg 7%
    15:00 +32°C° 0 mm 8 mps 678 mmHg 7%
    16:00 +32°C° 0 mm 9 mps 678 mmHg 8%
    17:00 +29°C° 0 mm 9 mps 678 mmHg 9%
    18:00 +28°C° 0 mm 8 mps 678 mmHg 10%
    19:00 +26°C° 0 mm 8 mps 678 mmHg 11%
    20:00 +24°C° 0 mm 8 mps 679 mmHg 12%
    21:00 +24°C° 0 mm 7 mps 679 mmHg 13%
    22:00 +23°C° 0 mm 7 mps 679 mmHg 13%
    23:00 +22°C° 0 mm 6 mps 679 mmHg 14%

    30 May, Wednesday

    Time Temperature Precipitation Wind Pressure Humidity
    00:00 +22°C° 0 mm 6 mps 679 mmHg 14%
    01:00 +21°C° 0 mm 6 mps 678 mmHg 15%
    02:00 +21°C° 0 mm 6 mps 678 mmHg 14%
    03:00 +21°C° 0 mm 6 mps 678 mmHg 14%
    04:00 +20°C° 0 mm 7 mps 678 mmHg 14%
    05:00 +21°C° 0 mm 7 mps 679 mmHg 14%
    06:00 +22°C° 0 mm 7 mps 680 mmHg 13%
    07:00 +24°C° 0 mm 8 mps 680 mmHg 13%
    08:00 +26°C° 0 mm 9 mps 680 mmHg 12%
    09:00 +27°C° 0 mm 10 mps 681 mmHg 12%
    10:00 +29°C° 0 mm 10 mps 681 mmHg 12%
    11:00 +29°C° 0 mm 11 mps 681 mmHg 12%
    12:00 +31°C° 0 mm 11 mps 681 mmHg 11%
    13:00 +32°C° 0 mm 12 mps 680 mmHg 11%
    14:00 +32°C° 0 mm 12 mps 680 mmHg 11%
    15:00 +32°C° 0 mm 12 mps 680 mmHg 11%
    16:00 +32°C° 0 mm 12 mps 680 mmHg 12%
    17:00 +29°C° 0 mm 11 mps 680 mmHg 12%
    18:00 +28°C° 0 mm 11 mps 680 mmHg 13%
    19:00 +27°C° 0 mm 10 mps 680 mmHg 14%
    20:00 +26°C° 0 mm 9 mps 680 mmHg 14%
    21:00 +24°C° 0 mm 9 mps 680 mmHg 15%
    22:00 +24°C° 0 mm 8 mps 680 mmHg 16%
    23:00 +23°C° 0 mm 8 mps 680 mmHg 17%

    31 May, Thursday

    Time Temperature Precipitation Wind Pressure Humidity
    00:00 +22°C° 0 mm 7 mps 680 mmHg 18%
    01:00 +21°C° 0 mm 7 mps 679 mmHg 20%
    02:00 +21°C° 0 mm 6 mps 679 mmHg 21%
    03:00 +20°C° 0 mm 6 mps 679 mmHg 22%
    04:00 +20°C° 0 mm 5 mps 678 mmHg 23%
    05:00 +21°C° 0 mm 5 mps 679 mmHg 22%
    06:00 +22°C° 0 mm 6 mps 680 mmHg 21%
    07:00 +23°C° 0 mm 6 mps 680 mmHg 20%
    08:00 +26°C° 0 mm 7 mps 680 mmHg 18%
    09:00 +27°C° 0 mm 7 mps 681 mmHg 16%
    10:00 +29°C° 0 mm 8 mps 681 mmHg 14%
    11:00 +32°C° 0 mm 8 mps 681 mmHg 14%
    12:00 +33°C° 0 mm 7 mps 680 mmHg 13%
    13:00 +34°C° 0 mm 7 mps 680 mmHg 13%
    14:00 +34°C° 0 mm 7 mps 680 mmHg 13%
    15:00 +34°C° 0 mm 7 mps 679 mmHg 13%
    16:00 +34°C° 0 mm 7 mps 679 mmHg 13%
    17:00 +33°C° 0 mm 7 mps 679 mmHg 14%
    18:00 +30°C° 0 mm 6 mps 679 mmHg 16%
    19:00 +29°C° 0 mm 6 mps 679 mmHg 17%
    20:00 +28°C° 0 mm 5 mps 679 mmHg 19%
    21:00 +27°C° 0 mm 4 mps 679 mmHg 20%
    22:00 +26°C° 0 mm 4 mps 679 mmHg 21%
    23:00 +26°C° 0 mm 3 mps 679 mmHg 21%
    Show more